Date,TemperatureHighF,TemperatureAvgF,TemperatureLowF,DewpointHighF,DewpointAvgF,DewpointLowF,HumidityHigh,HumidityAvg,HumidityLow,PressureMaxIn,PressureMinIn,WindSpeedMaxMPH,WindSpeedAvgMPH,GustSpeedMaxMPH,PrecipitationSumIn
2013-1-1,57.0,48.9,39.6,43.0,35.4,22.7,86,62,32,30.21,30.07,6,1,9,0.00
2013-1-2,61.4,52.2,41.2,44.7,28.7,18.0,69,42,21,30.11,30.02,13,3,16,0.00
2013-1-3,64.0,49.3,36.5,50.4,35.6,27.0,77,61,30,30.16,30.01,11,2,16,0.00
2013-1-4,61.9,50.0,37.7,35.2,27.0,17.0,71,43,24,30.25,30.14,9,2,11,0.00
2013-1-5,57.2,48.2,37.3,48.0,35.2,24.0,77,61,37,30.25,30.16,12,3,13,0.00
2013-1-6,54.3,48.8,42.9,49.0,44.2,36.5,96,84,68,30.18,29.99,12,3,16,0.35
2013-1-7,61.1,51.2,42.8,44.4,39.7,33.0,96,68,36,30.06,29.95,18,4,22,0.01
2013-1-8,63.0,51.3,40.8,49.0,42.2,34.0,88,72,51,30.10,29.98,7,1,9,0.00
2013-1-9,61.9,53.1,43.8,53.0,46.9,39.0,92,80,55,30.11,30.00,5,1,9,0.00
2013-1-10,54.1,51.9,47.2,50.0,40.9,25.0,94,68,40,30.07,29.91,20,8,34,0.01
2013-1-11,51.7,44.9,32.7,34.0,28.3,20.0,80,54,33,30.16,30.04,16,5,24,0.00
2013-1-12,51.6,42.9,33.4,34.1,28.2,21.0,73,58,33,30.12,30.03,9,2,13,0.00
2013-1-13,53.6,43.5,32.8,38.0,28.1,19.8,77,57,28,30.12,30.03,9,2,13,0.00
2013-1-14,55.0,45.5,35.4,27.0,12.4,-1.0,69,29,10,30.31,30.08,15,3,17,0.00
2013-1-15,56.5,45.5,33.7,34.5,23.0,8.7,58,42,25,30.44,30.30,13,3,16,0.00
2013-1-16,61.5,49.9,37.3,47.0,34.3,26.0,74,56,37,30.33,30.10,9,3,13,0.00
2013-1-17,69.7,59.0,46.0,41.1,29.2,21.0,74,35,16,30.14,30.03,11,2,15,0.00
2013-1-18,72.2,59.6,47.7,48.0,29.6,20.0,73,34,18,30.10,30.04,8,2,13,0.00
2013-1-19,69.9,59.8,49.8,34.0,27.0,21.0,49,29,19,30.15,30.06,8,2,11,0.00
2013-1-20,70.8,59.0,47.9,37.0,27.0,17.0,47,30,17,30.11,29.98,9,3,12,0.00
2013-1-21,71.0,59.4,46.3,41.0,26.9,14.7,48,30,17,30.07,29.97,12,2,13,0.00
2013-1-22,74.4,58.4,43.3,37.0,26.5,18.0,45,31,14,30.08,30.01,7,2,11,0.00
2013-1-23,76.5,63.5,52.4,51.0,36.3,20.0,75,38,17,30.13,29.99,10,2,16,0.00
2013-1-24,69.1,59.7,53.7,56.0,52.3,42.9,93,77,53,30.18,30.08,5,1,12,0.22
2013-1-25,64.5,60.1,57.4,61.0,57.7,54.9,98,92,80,30.10,29.94,8,2,15,0.31
2013-1-26,60.8,57.7,54.1,59.4,56.9,53.7,98,97,92,30.00,29.88,9,1,13,0.02
2013-1-27,57.5,53.6,47.3,54.0,49.0,44.0,98,85,66,30.03,29.97,14,3,17,0.02
2013-1-28,56.0,49.1,41.3,46.0,39.6,33.0,92,71,43,30.16,29.99,18,4,23,0.00
2013-1-29,56.9,47.9,37.9,44.4,39.5,34.0,86,73,52,30.23,30.16,7,2,11,0.00
2013-1-30,64.1,52.1,39.4,49.0,41.6,36.8,91,70,41,30.33,30.21,10,2,12,0.00
2013-1-31,67.1,56.3,43.1,49.0,43.0,38.3,83,63,38,30.23,30.08,11,3,18,0.00
2013-2-1,68.9,57.5,45.5,52.0,44.8,39.0,86,64,36,30.16,30.09,7,2,9,0.00
2013-2-2,68.9,59.4,52.0,53.1,48.1,44.0,78,67,49,30.17,30.08,13,2,16,0.00
2013-2-3,68.4,60.2,50.8,54.0,49.3,44.0,84,68,51,30.12,30.01,9,2,13,0.00
2013-2-4,56.9,50.9,44.4,51.1,48.1,41.0,97,90,75,30.08,29.97,9,2,14,0.00
2013-2-5,54.3,51.3,47.3,51.0,48.9,47.0,98,91,83,30.10,29.99,6,1,10,0.00
2013-2-6,58.2,53.8,47.0,50.0,47.9,44.8,92,81,70,30.09,29.99,10,2,13,0.00
2013-2-7,56.2,50.7,41.7,51.0,46.1,39.8,95,84,71,30.11,30.00,11,3,13,0.01
2013-2-8,53.0,48.6,41.1,47.5,41.5,38.0,92,77,64,30.00,29.88,18,6,25,0.29
2013-2-9,55.4,45.6,35.1,45.0,39.2,33.5,95,80,50,30.09,29.91,6,2,12,0.00
2013-2-10,55.5,47.3,38.8,45.1,40.8,34.7,90,79,62,30.09,30.01,8,2,11,0.02
2013-2-11,56.6,47.7,37.6,47.2,42.1,35.0,92,81,58,30.22,30.04,19,4,19,0.00
2013-2-12,57.0,47.6,36.6,48.2,38.7,29.0,85,72,53,30.34,30.22,13,3,15,0.00
2013-2-13,58.3,48.2,37.1,50.0,41.2,32.0,86,77,53,30.25,30.13,10,3,14,0.00
2013-2-14,62.1,51.3,40.1,53.0,45.2,36.7,89,80,56,30.20,30.05,12,3,16,0.00
2013-2-15,73.3,62.6,49.6,48.0,34.1,22.0,84,38,19,30.16,30.09,11,3,17,0.00
2013-2-16,77.4,66.3,51.4,37.0,23.1,16.0,51,21,12,30.12,29.96,15,3,17,0.00
2013-2-17,59.2,52.5,43.5,51.0,41.9,26.0,85,69,45,30.02,29.92,11,3,13,0.00
2013-2-18,58.0,52.9,49.7,49.0,45.6,42.0,84,76,65,30.05,29.96,11,2,15,0.00
2013-2-19,53.0,50.3,46.1,49.0,43.2,39.6,93,77,65,29.98,29.70,13,4,25,0.26
2013-2-20,53.8,49.2,43.4,42.0,37.0,29.0,77,63,45,29.99,29.68,26,8,34,0.01
2013-2-21,57.5,50.2,43.1,46.0,42.1,38.0,89,74,55,30.08,29.97,10,3,15,0.00
2013-2-22,57.7,48.8,36.4,49.0,41.9,33.5,89,77,59,30.18,30.08,11,3,14,0.00
2013-2-23,58.1,49.3,38.7,49.1,42.5,33.7,91,78,53,30.15,29.94,8,2,12,0.00
2013-2-24,69.2,53.2,41.8,47.0,34.5,9.3,93,60,10,30.18,29.96,10,2,19,0.01
2013-2-25,62.0,50.2,37.7,49.1,34.4,20.0,83,56,24,30.19,30.07,12,3,15,0.00
2013-2-26,58.3,50.0,35.5,50.4,41.0,30.0,87,72,56,30.10,29.98,11,3,16,0.00
2013-2-27,66.5,57.8,46.6,42.0,28.9,16.8,77,35,20,30.25,30.10,11,3,17,0.00
2013-2-28,70.6,59.4,44.7,39.0,25.8,15.0,53,30,13,30.29,30.21,12,3,16,0.00
2013-3-1,77.7,65.2,47.6,38.0,28.4,22.0,51,27,13,30.28,30.14,13,3,17,0.00
2013-3-2,76.2,63.5,52.2,49.0,34.3,27.0,72,36,17,30.18,30.08,12,3,14,0.00
2013-3-3,67.0,56.5,49.0,54.0,47.0,33.0,92,72,43,30.10,29.99,12,2,14,0.00
2013-3-4,60.7,55.4,51.3,52.0,50.1,47.5,90,82,68,30.09,30.02,10,3,14,0.00
2013-3-5,56.6,54.1,51.8,52.0,50.0,47.9,91,86,78,30.12,30.05,9,3,12,0.00
2013-3-6,57.1,53.8,49.5,50.0,45.7,42.0,88,74,57,30.15,30.01,13,4,18,0.00
2013-3-7,57.1,52.9,49.5,52.0,49.0,44.5,96,87,73,30.01,29.85,7,2,10,0.08
2013-3-8,54.6,50.8,46.8,49.0,44.7,40.0,95,80,61,30.03,29.77,20,4,32,0.48
2013-3-9,58.2,53.3,45.9,46.6,45.1,42.0,88,74,62,30.20,30.02,17,5,25,0.00
2013-3-10,65.5,53.4,41.1,51.1,42.2,33.0,92,69,33,30.25,30.15,16,4,19,0.00
2013-3-11,62.7,53.5,42.2,54.0,45.0,35.0,95,74,52,30.17,30.06,12,3,14,0.00
2013-3-12,60.3,51.8,43.9,54.0,49.6,42.8,97,92,78,30.09,29.99,11,3,14,0.01
2013-3-13,56.7,51.8,46.9,54.0,50.6,46.0,98,96,89,30.11,30.02,12,3,16,0.01
2013-3-14,60.4,52.9,47.7,55.0,51.6,47.0,98,95,81,30.08,30.00,15,4,18,0.01
2013-3-15,62.4,53.0,50.3,55.0,51.5,50.0,98,94,77,30.05,29.94,6,2,10,0.00
2013-3-16,58.9,53.2,49.5,52.0,50.5,49.0,98,90,79,29.97,29.91,8,3,12,0.00
2013-3-17,60.0,55.6,52.5,53.0,51.3,50.0,93,85,77,30.00,29.92,9,3,12,0.00
2013-3-18,60.2,56.3,53.1,52.0,51.0,50.0,91,82,72,30.08,29.98,5,1,12,0.00
2013-3-19,60.5,55.8,50.2,54.0,51.7,48.0,94,86,77,30.11,30.03,8,1,13,0.00
2013-3-20,63.2,56.3,50.1,56.0,52.9,48.7,96,88,69,30.09,29.97,10,1,12,0.00
2013-3-21,64.1,57.1,50.8,56.0,52.9,49.0,95,86,72,29.97,29.81,6,1,10,0.01
2013-3-22,60.7,56.7,52.1,54.0,52.6,49.0,93,86,75,29.91,29.80,12,2,16,0.00
2013-3-23,61.2,55.1,47.4,54.0,50.4,45.0,93,85,71,30.01,29.89,10,3,12,0.00
2013-3-24,61.7,55.8,49.1,55.0,52.3,47.0,94,88,77,30.00,29.89,14,3,17,0.00
2013-3-25,64.0,56.1,49.7,57.0,52.8,48.0,97,89,67,29.97,29.90,9,2,11,0.01
2013-3-26,61.3,56.1,52.0,54.2,52.6,50.0,94,88,75,29.97,29.91,8,2,13,0.00
2013-3-27,60.5,56.5,53.3,54.0,51.7,50.0,92,84,74,30.04,29.92,9,2,13,0.00
2013-3-28,60.5,56.6,53.0,56.0,53.1,50.0,95,88,80,30.07,30.00,13,4,19,0.00
2013-3-29,58.4,56.1,54.9,55.0,53.9,53.0,95,92,86,30.11,30.03,10,3,16,0.00
2013-3-30,60.2,56.5,53.7,55.0,53.8,51.7,96,91,83,30.13,30.05,13,4,16,0.00
2013-3-31,63.9,57.0,51.1,57.0,53.6,49.8,96,88,74,30.13,30.06,13,4,15,0.00
2013-4-1,61.3,56.9,54.3,55.0,52.2,49.0,93,85,70,30.16,30.08,19,6,24,0.00
2013-4-2,61.3,56.8,52.8,55.0,52.7,50.8,94,86,73,30.09,30.00,11,3,15,0.00
2013-4-3,61.9,56.4,51.7,56.2,53.4,49.3,94,89,80,30.08,30.00,13,3,19,0.00
2013-4-4,61.5,57.5,55.1,56.0,54.4,52.8,95,89,80,30.11,30.01,17,5,21,0.00
2013-4-5,62.1,57.7,55.7,56.0,54.8,53.6,97,90,78,30.09,30.01,12,3,14,0.02
2013-4-6,63.2,59.0,56.5,56.2,54.8,52.9,93,86,71,30.08,29.95,13,4,14,0.00
2013-4-7,64.0,57.5,48.4,56.2,52.9,47.0,95,85,70,29.97,29.80,7,3,14,0.00
2013-4-8,59.5,56.6,51.9,55.0,50.0,45.9,91,79,68,29.81,29.69,23,9,29,0.00
2013-4-9,64.5,55.5,44.7,52.0,44.4,34.0,89,69,33,30.00,29.80,18,5,24,0.00
2013-4-10,68.3,57.8,46.1,56.0,45.9,36.9,76,65,42,30.08,29.98,10,3,15,0.00
2013-4-11,63.0,56.1,46.7,56.0,47.7,37.0,86,74,52,30.00,29.80,13,4,19,0.00
2013-4-12,60.8,57.3,55.3,54.4,52.0,49.9,92,83,75,29.89,29.78,14,5,19,0.00
2013-4-13,57.6,56.0,54.1,55.0,52.8,49.0,95,89,82,29.92,29.84,9,3,14,0.00
2013-4-14,59.8,54.9,51.8,54.0,51.0,49.0,95,87,80,29.88,29.83,11,4,14,0.00
2013-4-15,59.7,56.1,53.2,54.0,51.3,47.0,93,84,78,29.91,29.83,12,4,15,0.02
2013-4-16,58.8,54.1,48.4,49.0,45.8,43.0,84,74,58,29.97,29.85,13,5,20,0.00
2013-4-17,64.0,54.9,40.4,47.0,35.5,22.8,85,53,22,30.09,29.97,23,6,29,0.00
2013-4-18,71.8,62.4,47.0,39.0,27.3,17.8,51,28,13,30.18,30.08,20,6,29,0.00
2013-4-19,73.6,61.5,45.4,53.0,33.0,21.0,85,37,16,30.14,29.96,15,5,19,0.00
2013-4-20,69.0,60.2,46.4,57.2,49.4,40.0,94,70,40,30.00,29.88,11,3,14,0.00
2013-4-21,65.9,58.7,52.5,57.4,54.6,50.0,96,86,73,30.01,29.92,9,3,12,0.00
2013-4-22,61.4,57.4,54.8,54.0,52.6,51.0,90,84,76,30.00,29.91,13,3,14,0.00
2013-4-23,62.2,58.4,55.7,54.0,51.9,50.7,86,79,69,29.98,29.87,10,3,14,0.00
2013-4-24,60.2,57.6,55.7,55.0,53.0,50.0,95,85,72,29.97,29.89,8,2,13,0.00
2013-4-25,64.4,59.8,55.4,55.1,53.0,49.8,92,79,60,30.10,29.95,13,4,16,0.01
2013-4-26,64.5,58.3,49.0,57.0,52.9,46.0,91,82,70,30.14,30.09,14,5,20,0.00
2013-4-27,62.2,57.8,52.7,57.2,54.7,50.7,97,90,81,30.14,29.99,15,4,18,0.00
2013-4-28,61.0,57.9,56.3,57.0,55.4,54.7,96,91,84,30.02,29.86,11,2,13,0.00
2013-4-29,63.6,58.4,55.9,57.0,55.0,53.0,96,88,76,29.90,29.80,11,4,14,0.00
2013-4-30,63.1,58.9,56.9,56.0,54.1,52.7,92,84,75,29.89,29.82,11,5,15,0.00
2013-5-1,63.4,60.2,57.1,57.0,56.1,55.0,94,86,76,30.09,29.89,11,4,16,0.01
2013-5-2,75.2,62.5,56.1,60.0,56.7,53.8,93,82,52,30.11,29.96,17,4,20,0.00
2013-5-3,83.0,68.0,56.1,61.0,48.3,26.0,92,56,13,30.00,29.79,12,4,15,0.00
2013-5-4,61.4,60.2,57.7,58.3,56.4,52.0,94,87,80,29.79,29.76,8,4,14,0.00
2013-5-5,63.2,59.6,57.7,55.5,54.0,52.6,89,82,71,29.94,29.82,7,4,17,0.00
2013-5-6,64.8,60.5,56.6,58.6,55.9,-99.9,96,85,73,30.01,29.90,13,0,19,0.01
2013-5-7,66.3,61.1,56.4,57.0,54.2,48.0,93,79,53,30.07,29.97,16,3,16,0.00
2013-5-8,64.0,59.9,56.0,56.6,54.6,52.8,89,83,69,30.10,30.05,17,4,18,0.00
2013-5-9,64.0,59.6,51.9,56.8,54.4,49.7,93,83,72,30.09,30.04,13,3,15,0.00
2013-5-10,65.5,61.2,54.6,60.0,56.8,52.0,93,86,77,30.09,30.02,16,4,18,0.00
2013-5-11,66.4,61.7,57.8,62.0,58.9,55.5,97,91,82,30.08,29.98,17,3,19,0.00
2013-5-12,77.8,65.2,59.0,64.2,60.7,58.4,98,86,57,30.05,29.90,13,3,15,0.00
2013-5-13,84.0,70.2,61.0,63.2,58.9,53.2,93,69,39,29.96,29.86,16,4,17,0.00
2013-5-14,66.4,62.1,58.3,59.3,57.1,53.9,91,84,71,30.00,29.89,18,5,18,0.00
2013-5-15,65.1,60.5,58.9,57.1,55.8,54.0,88,85,73,30.04,29.96,13,5,17,0.00
2013-5-16,66.2,62.5,59.3,58.9,56.9,53.7,87,82,71,29.98,29.91,15,4,15,0.00
2013-5-17,66.8,62.6,60.0,59.2,57.1,54.0,90,82,73,30.00,29.90,13,4,15,0.00
2013-5-18,67.7,62.6,59.1,59.2,56.8,54.9,90,82,68,30.04,29.97,13,4,15,0.00
2013-5-19,66.6,62.4,58.0,58.6,56.9,54.4,91,82,72,29.98,29.89,13,3,15,0.00
2013-5-20,68.7,62.7,56.5,61.2,58.0,53.2,91,85,75,29.95,29.89,10,3,12,0.00
2013-5-21,68.1,63.1,60.4,60.8,58.9,57.1,92,86,76,29.93,29.84,10,3,12,0.00
2013-5-22,66.6,62.9,60.7,58.1,56.3,54.5,86,79,68,29.84,29.78,14,4,16,0.00
2013-5-23,66.6,61.6,58.1,56.4,54.5,52.7,85,78,65,29.92,29.82,19,4,19,0.00
2013-5-24,65.0,60.7,55.0,54.9,53.4,50.9,86,77,68,29.99,29.90,15,3,15,0.00
2013-5-25,65.4,60.6,0.0,56.5,53.9,-99.9,88,79,65,30.03,29.97,13,2,16,0.00
2013-5-26,65.8,60.8,56.6,56.0,54.3,52.4,87,80,70,30.06,29.98,15,3,15,0.00
2013-5-27,66.3,60.8,53.7,59.2,55.5,51.1,92,83,73,30.00,29.86,14,3,15,0.00
2013-5-28,68.3,63.7,60.2,60.1,57.6,55.0,90,81,70,29.88,29.75,14,4,17,0.00
2013-5-29,70.8,64.6,60.3,62.4,59.2,56.9,90,83,71,29.80,29.72,14,4,16,0.00
2013-5-30,68.9,63.3,56.4,61.0,58.5,54.0,93,85,74,29.87,29.75,13,4,14,0.00
2013-5-31,67.2,63.7,60.9,60.7,58.7,56.7,89,84,76,29.89,29.81,14,4,15,0.00
2013-6-1,67.9,63.8,61.5,62.0,60.0,58.6,92,88,81,29.84,29.76,15,3,15,0.00
2013-6-2,64.8,62.2,61.1,60.1,58.8,56.9,94,89,81,29.83,29.75,13,3,14,0.00
2013-6-3,68.8,62.9,60.5,59.6,57.7,56.0,90,83,70,29.89,29.78,12,3,15,0.00
2013-6-4,67.4,62.9,60.5,59.3,57.1,55.6,88,82,71,29.96,29.87,14,4,15,0.00
2013-6-5,66.0,62.7,59.5,59.3,57.5,56.4,90,83,75,29.99,29.90,19,6,23,0.00
2013-6-6,65.2,60.9,58.1,59.4,57.4,55.5,92,88,80,29.95,29.87,17,4,18,0.00
2013-6-7,65.3,60.8,58.5,59.5,57.4,56.0,93,89,80,29.90,29.79,13,3,14,0.00
2013-6-8,64.4,60.5,58.7,59.0,57.4,56.3,93,89,80,29.90,29.78,11,2,13,0.00
2013-6-9,65.3,60.9,58.8,60.0,57.2,55.8,93,88,77,29.93,29.87,11,2,12,0.00
2013-6-10,67.2,63.1,59.3,59.7,56.9,54.3,91,81,68,29.95,29.88,13,4,18,0.00
2013-6-11,67.4,62.6,56.9,62.8,59.2,54.2,94,89,81,29.93,29.87,17,4,21,0.00
2013-6-12,66.3,62.5,60.1,61.1,59.0,57.9,94,88,81,30.01,29.91,12,3,13,0.00
2013-6-13,65.8,62.5,61.1,60.0,58.6,58.0,91,87,77,30.00,29.89,12,2,15,0.00
2013-6-14,67.4,62.3,59.4,59.0,57.5,55.0,91,84,74,29.91,29.85,9,3,15,0.00
2013-6-15,65.3,61.9,59.3,58.0,56.4,55.0,88,82,70,29.96,29.88,11,4,15,0.00
2013-6-16,65.7,62.5,59.6,60.0,57.3,55.0,93,83,75,30.02,29.94,12,4,16,0.00
2013-6-17,66.0,62.8,59.5,61.0,59.1,58.0,93,88,80,29.97,29.88,12,3,15,0.00
2013-6-18,68.1,62.9,59.5,61.0,59.3,58.0,94,88,78,29.91,29.84,11,3,12,0.00
2013-6-19,68.9,64.1,60.9,61.0,58.7,57.0,91,83,74,29.86,29.79,14,4,16,0.00
2013-6-20,69.5,64.8,59.0,62.0,59.7,57.0,93,84,69,29.86,29.78,10,4,15,0.00
2013-6-21,69.7,64.3,56.9,61.0,59.2,53.0,91,84,72,29.90,29.81,9,3,12,0.00
2013-6-22,68.8,63.8,61.1,60.0,58.9,58.0,92,84,72,29.92,29.82,9,4,14,0.00
2013-6-23,67.2,63.0,60.8,59.0,57.7,56.0,90,83,70,29.87,29.80,11,4,15,0.00
2013-6-24,67.8,64.6,59.9,61.2,59.7,56.0,95,84,75,29.93,29.82,12,4,12,0.06
2013-6-25,69.3,64.0,58.7,63.4,60.7,56.0,94,89,79,29.99,29.89,17,5,19,0.00
2013-6-26,70.5,65.6,62.2,64.4,62.6,60.7,95,90,79,29.98,29.89,14,4,17,0.00
2013-6-27,74.0,66.6,62.6,66.2,63.2,61.5,97,89,75,30.01,29.95,10,2,10,0.00
2013-6-28,74.4,66.4,62.4,66.1,63.6,61.5,98,91,73,29.99,29.85,13,3,13,0.00
2013-6-29,74.4,67.8,63.4,67.5,64.6,62.1,98,90,71,29.87,29.72,12,3,14,0.00
2013-6-30,78.2,68.8,63.8,68.6,64.9,61.0,95,88,68,29.79,29.69,15,3,23,0.01
2013-7-1,81.1,68.4,64.1,68.8,65.1,62.3,96,90,66,29.87,29.79,12,2,13,0.00
2013-7-2,70.2,66.8,64.8,66.1,64.2,62.7,98,91,83,29.99,29.85,11,2,13,0.00
2013-7-3,69.1,65.6,63.2,65.8,63.7,61.8,97,94,88,29.92,29.79,15,4,17,0.00
2013-7-4,69.4,65.2,62.4,64.3,62.2,60.8,97,90,81,29.82,29.76,14,3,15,0.00
2013-7-5,71.2,66.2,63.7,64.0,62.0,60.5,91,86,77,29.84,29.76,12,2,13,0.00
2013-7-6,69.8,66.0,64.1,64.5,62.4,61.5,92,88,82,29.81,29.75,10,2,11,0.00
2013-7-7,70.1,66.2,63.9,65.1,63.0,61.5,93,90,83,29.84,29.75,18,5,21,0.00
2013-7-8,72.5,65.6,61.5,66.0,62.8,60.3,97,91,77,29.91,29.83,18,4,19,0.00
2013-7-9,73.2,67.2,62.3,66.7,63.5,60.0,96,88,75,30.01,29.87,13,3,16,0.00
2013-7-10,73.2,68.4,66.4,67.5,65.3,64.1,94,90,80,29.97,29.88,9,2,10,0.00
2013-7-11,71.5,67.5,66.0,66.7,64.9,63.6,94,91,85,29.95,29.87,10,2,11,0.00
2013-7-12,72.3,67.9,65.1,66.4,64.5,62.7,93,89,79,29.91,29.84,14,4,17,0.00
2013-7-13,69.3,66.6,65.0,64.4,63.0,62.0,92,88,82,29.94,29.85,17,4,18,0.00
2013-7-14,73.0,68.0,64.4,67.1,64.2,61.8,92,88,78,29.91,29.83,13,3,14,0.00
2013-7-15,72.8,68.0,64.4,67.0,63.6,57.0,93,86,60,29.87,29.80,19,4,20,0.00
2013-7-16,69.9,65.2,58.3,63.8,61.3,55.8,94,87,78,29.97,29.84,16,4,18,0.00
2013-7-17,74.2,65.5,55.0,64.7,60.9,53.9,97,86,60,30.00,29.93,18,5,22,0.01
2013-7-18,69.6,64.2,57.1,64.0,60.6,53.9,95,88,80,29.98,29.85,18,4,18,0.01
2013-7-19,70.1,65.4,62.2,64.0,61.9,60.0,94,89,81,29.90,29.83,8,2,12,0.00
2013-7-20,67.3,64.3,62.7,63.0,61.5,61.0,93,90,85,29.87,29.79,6,2,10,0.00
2013-7-21,67.6,65.2,63.9,64.0,62.3,62.0,94,90,86,29.91,29.78,5,1,9,0.00
2013-7-22,71.1,66.8,63.4,65.0,63.2,61.0,94,88,80,29.97,29.89,12,3,12,0.00
2013-7-23,68.8,65.8,64.1,64.0,62.8,62.0,93,90,83,30.02,29.91,15,5,18,0.00
2013-7-24,67.6,65.0,61.9,63.7,62.0,60.0,95,90,85,29.96,29.87,20,8,22,0.00
2013-7-25,68.5,64.3,62.2,62.7,61.3,60.0,95,90,80,30.00,29.91,19,4,19,0.00
2013-7-26,70.0,65.2,63.0,64.6,62.6,61.2,95,91,82,30.07,29.96,14,4,17,0.00
2013-7-27,67.7,63.9,61.8,63.7,61.8,60.0,96,93,86,30.01,29.88,12,3,13,0.00
2013-7-28,68.3,62.8,60.1,62.3,60.1,58.2,97,91,79,29.92,29.87,12,2,13,0.00
2013-7-29,67.3,63.0,60.2,60.0,58.6,57.7,92,86,75,30.03,29.90,13,3,15,0.00
2013-7-30,67.0,63.0,59.3,60.4,58.4,56.7,91,85,77,30.10,30.03,16,4,20,0.00
2013-7-31,67.6,62.2,56.6,60.4,58.0,54.3,93,86,76,30.09,29.99,18,4,18,0.00
2013-8-1,68.5,64.0,61.7,61.0,59.2,57.6,91,85,73,30.01,29.90,14,4,18,0.00
2013-8-2,69.4,64.6,61.3,61.1,59.4,58.0,91,83,73,29.96,29.90,13,3,14,0.00
2013-8-3,67.5,63.8,61.2,61.6,59.6,57.9,91,86,78,29.99,29.92,11,3,14,0.00
2013-8-4,67.2,63.8,60.5,61.4,59.8,58.4,94,87,80,30.00,29.92,15,5,17,0.00
2013-8-5,67.2,62.1,58.8,61.4,59.3,57.8,97,91,81,30.00,29.92,15,3,18,0.00
2013-8-6,67.5,63.3,60.7,61.0,59.1,57.4,94,86,77,30.03,29.95,14,4,17,0.00
2013-8-7,66.3,62.8,60.2,61.3,59.0,57.3,94,88,78,30.07,29.96,13,4,16,0.00
2013-8-8,67.4,61.8,55.4,62.0,58.5,53.6,96,89,80,30.00,29.90,16,3,17,0.01
2013-8-9,67.4,62.3,58.1,60.4,58.5,56.4,95,87,77,29.96,29.90,12,2,14,0.00
2013-8-10,66.5,62.8,59.6,59.0,58.0,56.0,92,84,76,30.02,29.95,9,2,13,0.00
2013-8-11,66.8,63.0,60.0,62.0,59.3,57.0,94,88,79,29.98,29.89,13,4,15,0.00
2013-8-12,66.8,63.3,60.9,61.0,60.0,59.0,94,89,81,29.96,29.89,9,3,14,0.00
2013-8-13,66.9,63.0,61.2,63.0,60.5,60.0,95,92,85,29.96,29.87,12,3,15,0.00
2013-8-14,66.1,62.7,60.8,63.0,60.6,59.0,95,92,87,29.92,29.84,10,2,14,0.00
2013-8-15,69.0,64.3,61.4,64.0,62.0,60.0,97,92,82,29.93,29.87,9,2,12,0.00
2013-8-16,70.8,65.6,60.9,65.0,62.9,59.0,95,91,82,29.95,29.89,11,3,14,0.00
2013-8-17,67.8,64.1,62.1,63.0,62.1,61.0,98,93,85,29.94,29.81,16,4,20,0.00
2013-8-18,69.2,64.9,62.0,64.0,61.9,61.0,96,90,79,29.90,29.81,7,2,13,0.00
2013-8-19,67.2,64.8,63.3,63.0,61.9,61.0,93,90,83,29.94,29.85,11,3,13,0.00
2013-8-20,68.9,64.6,62.3,64.0,61.8,61.0,95,91,83,29.92,29.82,16,6,20,0.00
2013-8-21,69.7,64.8,60.2,63.0,61.1,58.0,95,88,77,29.90,29.82,16,5,20,0.00
2013-8-22,75.5,66.9,60.5,62.0,60.4,57.0,94,81,57,29.90,29.78,16,5,19,0.00
2013-8-23,71.1,65.1,59.7,63.0,61.1,58.0,95,87,71,29.85,29.73,15,4,19,0.01
2013-8-24,67.3,61.9,59.6,62.0,60.2,59.0,98,94,83,29.87,29.76,11,2,17,0.01
2013-8-25,68.1,62.4,57.9,63.0,60.3,57.0,98,93,84,29.90,29.82,15,3,19,0.00
2013-8-26,77.4,68.2,62.9,64.0,61.1,53.0,93,79,45,29.90,29.79,12,3,15,0.00
2013-8-27,76.0,68.5,64.2,66.0,62.8,60.0,93,83,57,29.84,29.75,14,4,17,0.00
2013-8-28,76.7,68.9,63.2,65.0,62.0,57.0,95,79,56,29.88,29.75,17,4,19,0.00
2013-8-29,77.8,71.3,64.1,65.0,62.2,56.0,94,75,49,29.91,29.85,11,3,15,0.00
2013-8-30,86.5,79.0,68.3,71.0,66.1,58.0,86,65,53,29.96,29.87,9,2,13,0.00
2013-8-31,82.4,74.9,71.6,70.0,66.4,64.0,87,75,64,29.95,29.88,12,3,13,0.00
2013-9-1,77.9,72.0,65.9,70.7,67.3,64.7,97,86,77,29.94,29.86,15,4,18,0.00
2013-9-2,75.3,67.9,63.4,68.3,65.3,62.8,98,92,78,29.92,29.79,17,4,17,0.00
2013-9-3,80.2,72.3,66.6,68.6,66.4,64.6,95,82,64,29.90,29.80,14,3,16,0.00
2013-9-4,81.4,72.8,67.3,68.1,65.1,59.6,93,78,49,29.88,29.81,15,3,19,0.00
2013-9-5,81.1,71.8,67.4,66.8,64.3,61.9,89,78,53,29.88,29.80,18,3,19,0.00
2013-9-6,78.9,72.4,67.0,68.5,64.7,61.0,87,77,60,29.85,29.77,15,2,16,0.00
2013-9-7,76.2,70.5,66.6,67.5,64.8,62.7,91,82,67,29.85,29.78,14,2,16,0.00
2013-9-8,70.6,66.4,62.7,65.3,62.6,60.7,94,88,76,29.84,29.73,19,4,20,0.00
2013-9-9,68.0,64.3,60.6,63.6,61.0,57.8,95,89,82,29.81,29.73,16,4,17,0.00
2013-9-10,69.4,65.0,61.8,62.5,60.3,58.0,92,85,76,29.93,29.79,13,3,14,0.00
2013-9-11,68.4,64.2,61.4,61.5,59.8,58.4,92,86,76,29.99,29.91,16,4,17,0.00
2013-9-12,69.8,64.9,57.9,63.4,61.1,56.0,95,88,77,29.92,29.81,19,5,21,0.01
2013-9-13,70.4,63.6,57.2,64.3,60.4,54.8,96,90,79,29.83,29.65,14,3,16,0.01
2013-9-14,70.0,63.7,58.5,65.6,61.8,57.7,98,94,82,29.71,29.61,17,3,18,0.01
2013-9-15,72.6,65.9,62.0,66.8,63.3,61.0,98,92,73,29.76,29.68,17,4,20,0.00
2013-9-16,73.5,65.8,60.1,65.3,62.2,59.0,97,88,68,29.79,29.72,20,4,20,0.01
2013-9-17,68.5,64.3,61.2,62.3,61.2,59.8,96,90,78,29.81,29.73,10,2,12,0.00
2013-9-18,71.2,65.3,61.8,62.0,59.7,58.0,90,82,70,29.81,29.73,11,2,13,0.00
2013-9-19,70.2,64.6,57.1,63.1,60.1,54.8,94,85,76,29.82,29.75,12,2,13,0.00
2013-9-20,66.9,65.4,64.1,63.0,61.0,58.6,90,86,79,29.88,29.81,10,2,11,0.00
2013-9-21,68.3,65.9,61.5,62.0,59.5,57.6,91,80,71,29.90,29.80,16,5,18,0.00
2013-9-22,68.7,64.1,58.7,61.0,57.5,50.0,94,80,61,29.84,29.78,13,2,15,0.00
2013-9-23,75.7,66.2,55.9,63.0,55.7,50.0,84,70,42,29.89,29.78,13,3,16,0.00
2013-9-24,77.0,70.4,58.0,65.2,60.2,47.0,93,72,45,29.92,29.83,12,3,12,0.00
2013-9-25,71.6,65.2,58.2,63.3,59.5,54.0,91,82,71,29.84,29.70,17,5,20,0.00
2013-9-26,68.4,64.0,56.6,59.2,55.8,48.8,82,75,59,29.87,29.70,17,5,20,0.00
2013-9-27,73.1,63.3,49.9,60.6,48.0,36.0,83,61,27,29.97,29.85,16,4,19,0.00
2013-9-28,79.2,66.1,50.9,55.7,42.9,34.0,69,44,21,30.03,29.94,13,4,16,0.00
2013-9-29,74.6,65.0,52.6,62.7,50.3,38.0,86,60,31,30.04,29.95,17,3,17,0.00
2013-9-30,71.5,63.3,53.4,63.2,56.4,45.1,94,79,59,29.98,29.85,12,2,12,0.00
2013-10-1,70.7,63.1,54.5,63.1,58.4,51.5,93,85,73,29.93,29.86,12,3,15,0.01
2013-10-2,69.2,64.6,62.3,60.6,58.5,56.0,87,81,71,29.96,29.87,12,3,12,0.00
2013-10-3,67.6,63.9,61.1,61.5,58.9,56.0,88,84,76,29.92,29.83,14,3,15,0.00
2013-10-4,69.4,64.7,58.4,63.1,59.7,55.3,94,84,76,30.01,29.87,14,3,17,0.00
2013-10-5,86.6,72.1,58.6,61.0,37.6,20.4,96,32,9,30.09,30.00,13,2,15,0.01
2013-10-6,83.9,72.4,57.0,51.9,33.8,21.2,58,26,12,30.05,29.94,16,4,17,0.00
2013-10-7,73.8,64.7,57.8,63.9,49.6,28.4,90,61,30,29.96,29.90,14,3,16,0.00
2013-10-8,67.3,61.3,55.2,59.1,53.8,48.9,86,76,68,29.92,29.81,12,3,14,0.00
2013-10-9,62.8,58.9,53.4,54.5,51.6,47.3,93,77,65,29.81,29.71,24,5,27,0.27
2013-10-10,65.6,59.0,49.0,52.7,50.7,46.0,92,75,55,30.00,29.78,13,2,14,0.00
2013-10-11,65.7,58.3,47.8,58.3,52.8,45.0,91,82,68,30.02,29.92,18,4,19,0.00
2013-10-12,65.8,58.9,49.7,59.6,55.4,47.8,95,88,79,29.96,29.89,13,3,15,0.00
2013-10-13,64.6,60.1,53.7,56.8,55.1,51.2,93,84,73,30.01,29.91,12,2,13,0.00
2013-10-14,71.9,60.2,50.2,61.7,55.3,48.4,96,85,53,30.00,29.87,15,3,16,0.01
2013-10-15,75.8,64.8,52.6,58.3,50.6,42.9,92,63,32,29.94,29.86,10,2,11,0.00
2013-10-16,77.4,67.3,54.4,51.8,39.1,28.7,67,38,19,30.04,29.93,11,3,13,0.00
2013-10-17,71.7,63.5,52.4,58.2,43.8,33.5,68,49,27,30.01,29.91,11,2,14,0.00
2013-10-18,71.3,62.0,51.0,60.0,50.3,40.8,82,66,47,29.98,29.90,13,3,15,0.00
2013-10-19,69.6,60.0,51.8,60.7,54.1,45.1,91,81,48,30.00,29.93,12,3,13,0.00
2013-10-20,64.5,58.0,49.6,59.5,55.3,48.5,98,91,81,29.97,29.89,13,2,15,0.01
2013-10-21,63.7,58.6,52.7,58.6,56.0,51.6,97,91,81,29.97,29.89,15,3,15,0.00
2013-10-22,64.1,58.7,53.1,59.2,56.1,51.7,97,91,83,29.98,29.89,15,3,17,0.01
2013-10-23,64.1,60.8,58.9,56.9,55.8,54.7,90,84,75,29.96,29.90,13,3,14,0.00
2013-10-24,65.2,61.3,57.9,57.3,55.5,53.3,89,81,69,30.03,29.94,16,3,18,0.00
2013-10-25,65.1,60.3,57.3,58.4,56.1,54.0,93,86,77,30.10,29.99,15,3,17,0.00
2013-10-26,62.2,58.0,51.4,60.0,56.6,50.0,98,95,91,30.06,29.94,15,2,16,0.01
2013-10-27,65.4,59.3,53.7,59.9,57.0,53.2,99,92,80,29.97,29.81,8,2,12,0.01
2013-10-28,63.2,59.6,53.3,57.2,52.8,48.9,95,79,70,29.92,29.81,15,5,17,0.00
2013-10-29,62.6,56.0,47.0,52.6,49.7,44.7,92,80,65,30.00,29.90,12,2,13,0.00
2013-10-30,63.1,56.3,48.6,55.4,50.6,45.0,91,81,67,30.05,29.97,14,3,16,0.00
2013-10-31,68.8,58.6,47.2,53.7,47.6,42.4,88,68,39,30.06,29.97,13,2,14,0.00
2013-11-1,79.2,62.7,48.8,52.1,43.2,34.2,82,53,20,30.06,29.92,13,3,13,0.00
2013-11-2,71.5,62.4,52.0,61.9,50.1,33.1,94,66,36,29.97,29.87,9,2,11,0.00
2013-11-3,65.8,60.0,51.8,56.8,53.6,49.8,94,80,70,29.90,29.81,12,2,14,0.00
2013-11-4,64.6,58.9,51.1,55.1,51.3,47.7,89,76,62,29.92,29.78,12,2,13,0.00
2013-11-5,68.6,57.8,46.6,57.6,44.8,20.3,93,66,26,30.11,29.92,14,3,16,0.00
2013-11-6,72.1,61.3,47.5,51.8,31.0,16.5,64,33,14,30.17,30.06,14,3,15,0.00
2013-11-7,79.1,66.3,53.1,43.2,29.9,16.8,51,27,10,30.08,29.97,11,3,13,0.00
2013-11-8,70.9,59.7,47.6,59.5,46.5,30.3,94,64,32,30.01,29.92,10,2,12,0.00
2013-11-9,68.4,56.3,43.9,56.0,48.6,40.5,97,78,38,30.06,29.98,9,2,10,0.00
2013-11-10,78.1,60.0,49.6,58.1,47.9,26.6,90,67,15,30.11,30.00,12,2,15,0.00
2013-11-11,69.0,58.2,47.5,59.3,49.9,36.7,90,75,47,30.11,30.00,13,3,16,0.00
2013-11-12,74.6,62.1,51.1,59.4,53.3,45.9,94,74,49,30.14,30.03,10,2,11,0.00
2013-11-13,80.2,68.0,55.7,58.0,46.0,37.9,75,47,25,30.03,29.87,11,2,13,0.00
2013-11-14,82.1,65.6,58.0,60.0,42.5,33.0,96,45,18,29.90,29.76,8,2,15,0.00
2013-11-15,65.0,60.4,55.5,58.0,56.3,53.0,96,86,76,29.76,29.67,12,4,20,0.00
2013-11-16,64.3,59.0,55.0,55.0,51.3,49.0,93,76,60,29.92,29.73,7,2,14,0.01
2013-11-17,64.0,57.5,50.6,56.0,52.0,48.0,91,82,66,30.07,29.92,9,2,12,0.00
2013-11-18,63.3,57.2,49.0,56.0,52.6,47.0,93,85,72,30.13,30.04,13,4,16,0.00
2013-11-19,61.1,58.4,54.5,55.0,53.9,52.0,91,85,75,30.08,29.95,11,2,14,0.01
2013-11-20,64.5,59.3,54.3,58.0,55.1,52.0,96,86,75,29.96,29.87,8,2,12,0.09
2013-11-21,61.0,58.1,54.5,59.0,56.7,53.0,98,95,88,29.88,29.82,15,4,16,0.35
2013-11-22,58.4,53.8,49.6,53.0,48.1,42.0,97,82,63,29.92,29.80,6,1,13,0.01
2013-11-23,63.9,55.1,48.0,50.0,45.4,42.0,86,71,49,30.06,29.92,9,2,14,0.00
2013-11-24,61.0,53.9,44.6,54.0,47.6,41.0,87,79,65,30.16,30.05,15,3,16,0.00
2013-11-25,65.9,55.2,44.6,55.0,46.7,41.0,87,74,48,30.20,30.13,12,3,15,0.00
2013-11-26,69.1,58.3,45.1,54.0,45.0,36.0,86,64,35,30.17,30.02,9,2,13,0.00
2013-11-27,69.1,60.4,51.5,56.0,46.0,42.0,90,61,43,30.02,29.86,9,2,11,0.00
2013-11-28,64.8,56.3,46.8,56.0,47.7,38.0,83,73,61,30.04,29.86,6,1,11,0.00
2013-11-29,62.8,56.5,51.8,57.0,52.9,47.0,94,87,81,30.15,30.03,6,1,9,0.14
2013-11-30,67.4,58.2,50.4,56.0,51.3,48.0,91,78,57,30.14,30.05,9,2,14,0.01
2013-12-1,72.0,59.7,49.9,57.0,48.3,36.0,89,68,42,30.17,30.06,7,2,12,0.00
2013-12-2,70.0,59.3,49.8,53.0,41.7,32.0,75,53,34,30.09,29.90,7,2,11,0.00
2013-12-3,61.7,55.9,45.3,55.0,49.7,40.0,86,80,71,29.89,29.75,17,4,21,0.00
2013-12-4,58.6,53.2,45.9,48.0,41.0,37.0,77,64,47,29.95,29.77,14,3,22,0.00
2013-12-5,58.2,50.5,40.8,42.0,39.6,36.0,83,67,50,30.08,29.91,11,2,13,0.00
2013-12-6,57.8,50.4,42.7,44.0,39.5,38.0,82,67,52,30.16,30.08,12,2,15,0.00
2013-12-7,56.9,50.2,42.1,51.0,42.0,37.0,91,74,55,30.10,29.99,18,5,24,0.07
2013-12-8,55.2,46.8,38.3,41.0,38.6,35.0,89,74,53,30.18,30.07,6,1,13,0.00
2013-12-9,58.9,47.9,34.6,33.0,20.0,5.0,75,38,16,30.25,30.15,9,2,12,0.00
2013-12-10,60.5,49.9,36.7,39.0,27.2,6.0,63,43,18,30.22,30.07,11,2,13,0.00
2013-12-11,63.6,51.6,38.9,50.0,36.7,26.0,86,59,32,30.14,30.07,9,2,12,0.00
2013-12-12,60.9,52.3,43.4,54.0,44.8,31.0,93,77,33,30.20,30.11,8,2,10,0.00
2013-12-13,58.7,49.8,39.5,51.0,44.5,34.0,95,82,64,30.21,30.11,7,2,13,0.00
2013-12-14,68.2,55.1,42.4,52.0,40.4,25.0,96,64,23,30.27,30.15,11,2,15,0.02
2013-12-15,73.3,60.3,47.8,53.0,38.8,22.0,76,47,26,30.21,30.05,9,2,11,0.00
2013-12-16,76.2,64.0,54.1,48.0,38.5,30.0,54,40,25,30.10,30.03,8,2,14,0.00
2013-12-17,75.0,63.0,53.6,57.0,44.9,36.0,88,54,32,30.11,29.98,8,1,9,0.00
2013-12-18,66.5,59.0,54.7,57.0,52.7,44.0,93,80,59,29.98,29.84,8,3,12,0.00
2013-12-19,55.5,51.3,43.6,51.0,47.0,41.0,93,85,76,29.84,29.70,11,3,18,0.10
2013-12-20,59.0,49.5,39.4,51.0,45.2,38.0,95,85,73,29.93,29.73,10,2,14,0.01
2013-12-21,59.2,50.6,42.4,52.0,45.8,39.0,93,84,74,30.06,29.89,11,2,14,0.00
2013-12-22,59.8,51.7,42.0,53.0,47.3,40.0,94,85,73,30.23,30.06,8,2,13,0.01
2013-12-23,72.1,59.1,45.4,50.0,42.1,39.0,88,57,31,30.28,30.16,11,3,15,0.00
2013-12-24,67.1,57.5,47.6,56.0,45.0,36.0,91,64,41,30.16,30.06,9,3,11,0.00
2013-12-25,74.5,64.9,51.5,43.0,31.8,18.0,66,32,16,30.15,30.07,10,2,13,0.00
2013-12-26,77.4,62.6,51.7,47.0,26.6,14.0,58,29,11,30.12,30.03,11,2,16,0.00
2013-12-27,75.0,59.9,46.5,43.0,27.7,14.0,43,30,11,30.11,30.02,7,2,12,0.00
2013-12-28,65.5,55.9,44.6,56.0,41.4,26.0,95,62,29,30.02,29.92,9,3,14,0.00
2013-12-29,74.5,53.8,42.9,56.0,45.9,30.0,97,77,25,30.11,29.96,8,2,13,0.00
2013-12-30,69.2,55.3,44.4,39.0,27.1,15.0,55,36,16,30.22,30.11,8,2,11,0.00
2013-12-31,61.2,51.9,41.7,54.0,40.2,23.0,94,67,26,30.16,30.06,10,2,13,0.00
2014-1-1,67.1,52.2,40.9,55.0,46.8,38.0,95,83,39,30.10,30.01,12,2,15,0.00
2014-1-2,64.8,54.4,43.1,56.0,47.5,38.0,96,78,48,30.06,29.97,7,2,10,0.00